Regional Weather Roundup
Issued by NWS

Home | Current Version | Previous Version | Graphics & Text | Print | Product List | Glossary On
Versions: 1 2 3 4 5 6 7 8 9 10 11 12 13 14 15 16 17 18 19 20 21 22 23 24 25 26 27 28 29 30 31 32 33 34 35 36 37 38 39 40 41 42 43 44 45 46 47 48 49 50
000
ASUS43 KMPX 290410
RWRMN
WEATHER ROUNDUP FOR MINNESOTA
NATIONAL WEATHER SERVICE TWIN CITIES/CHANHASSEN MN
1100 PM CDT SAT MAR 28 2015


NOTE: "FAIR" INDICATES FEW OR NO CLOUDS BELOW 12,000 FEET WITH NO
SIGNIFICANT WEATHER AND/OR OBSTRUCTIONS TO VISIBILITY. N/A MEANS
CURRENT SKY AND/OR WEATHER CONDITIONS ARE NOT AVAILABLE.

MNZ060>063-068>070-290500-
   Twin Cities Metro

CITY           SKY/WX    TMP DP  RH WIND       PRES   REMARKS
TWIN CITIES    CLOUDY    36  22  56 SE15      29.97F
ST PAUL        CLOUDY    35  22  58 S16       29.99F WCI  25
CRYSTAL        MOCLDY    38  22  52 S20       29.93F
BLAINE         MOCLDY    39  23  52 S17G26    29.94F
LAKEVILLE      CLOUDY    34  23  64 S14       29.97F WCI  24
EDEN PRAIRIE   MOCLDY    37  23  56 S16       29.94F
SOUTH ST PAUL  CLOUDY    36  22  58 SE8G16    29.98F
$$
MNZ001>005-007-008-013>017-022>024-027-028-290500-
   Northwest Minnesota

CITY           SKY/WX    TMP DP  RH WIND       PRES   REMARKS
HALLOCK        RAIN      39  36  87 S21       29.60S
ROSEAU         MOCLDY    39  30  70 S18G25    29.63R
WARROAD        CLOUDY    39  30  70 S8G17     29.65R
THIEF RVR FALL CLOUDY    41  30  65 S16G22    29.67R
CROOKSTON      CLOUDY    45  30  57 SW20G31   29.68R
FOSSTON        MOCLDY    37  27  65 S25G32    29.63F
DETROIT LAKES  MOCLDY    39  30  70 S21G30    29.68F
MOORHEAD       MOCLDY    45  30  57 S26G37    29.63F
PARK RAPIDS    PTCLDY    39  26  59 S21G26    29.73F
MAHNOMEN       FAIR      40  29  64 S24G31    29.63F
$$
MNZ006-009>011-018-025>026-290500-
   North Central Minnesota

CITY           SKY/WX    TMP DP  RH WIND       PRES   REMARKS
BAUDETTE       CLOUDY    38  26  62 S16G25    29.64F
FLAG ISLAND    CLOUDY    34  28  80 S13       29.63S WCI  25
INTL FALLS     CLOUDY    38  22  52 S14G24    29.71F
WASKISH        CLOUDY    39  27  60 S9G24     29.67F
BIG FORK       MOCLDY    37  21  52 S15G21    29.75F
LONGVILLE      PTCLDY    36  25  64 S16G22    29.78F
GRAND RAPIDS   MOCLDY    36  19  51 S23G31    29.79F
CRANE LAKE     CLOUDY    36  18  48 S9G17     29.80F
ORR            CLOUDY    36  18  48 S15G22    29.75F
COOK           CLOUDY    36  19  51 S12       29.80F
WALKER         FAIR      37  25  60 S18G26    29.73F
$$
MNZ012-019>021-037-290500-
   Northeast Minnesota

CITY           SKY/WX    TMP DP  RH WIND       PRES   REMARKS
DULUTH         MOCLDY    34  16  47 S15       29.88F WCI  24
ELY            MOCLDY    34  14  44 S16G23    29.82F WCI  23
HIBBING        CLOUDY    35  17  47 S14G23    29.82F WCI  26
EVELETH        CLOUDY    34  19  55 S13G18    29.85F WCI  25
DULUTH HARBOR  MOCLDY    37  19  48 S9        29.93F
TWO HARBORS    MOCLDY    37  19  48 S8        29.89F
SILVER BAY     PTCLDY    36  18  48 S13       29.88F
GRAND MARAIS     N/A     27  20  75 NW3       29.92F
G MARAIS ARPRT PTCLDY    27  14  59 S8        29.87F WCI  18
$$
MNZ029>031-032-039>041-046>048-054>057-064-290500-
   West Central Minnesota

CITY           SKY/WX    TMP DP  RH WIND       PRES   REMARKS
FERGUS FALLS   MOCLDY    41  27  56 S23G32    29.71F
WHEATON        MOCLDY    37  28  70 SE23G30   29.69F
MORRIS         MOCLDY    37  30  75 SE22      29.74F
ALEXANDRIA     MOCLDY    40  27  59 S20G30    29.78F
WADENA         PTCLDY    37  27  65 S20G26    29.75F
GLENWOOD       PTCLDY    39  28  65 SE23G31   29.79F
APPLETON       MOCLDY    43  28  56 S17G23    29.76F
BENSON         PTCLDY    39  28  65 S15G28    29.78F
ORTONVILLE     MOCLDY    39  28  65 SE13G21   29.72F
MADISON        PTCLDY    41  28  60 S16       29.76F
WILLMAR        FAIR      37  27  65 SE17G23   29.83F
$$
MNZ033>034-036-042>043-049>051-058-059-290500-
   Central Minnesota

CITY           SKY/WX    TMP DP  RH WIND       PRES   REMARKS
ST CLOUD       PTCLDY    36  24  62 S17       29.88F
PAYNESVILLE    CLEAR     35  25  66 E17G24    29.85F WCI  25
AITKIN         CLEAR     37  25  60 S13G23    29.82F
PINE RIVER     PTCLDY    36  25  64 S14G23    29.83F
BRAINERD       PTCLDY    35  23  61 S17G25    29.83F WCI  25
STAPLES        PTCLDY    37  25  60 S14G23    29.78F
LITTLE FALLS   PTCLDY    34  23  64 SE15      29.84F WCI  24
LITCHFIELD     CLEAR     37  27  65 SE12      29.87F
BUFFALO        PTCLDY    37  25  60 S9G18     29.94F
MAPLE LAKE     PTCLDY    37  27  69 SE10G16   29.91F
$$
MNZ037-044-045-052-053-290500-
   East Central Minnesota

CITY           SKY/WX    TMP DP  RH WIND       PRES   REMARKS
PRINCETON      PTCLDY    37  23  56 SE13      29.91F
MORA           PTCLDY    34  21  60 S13G18    29.93F WCI  25
CAMBRIDGE      MOCLDY    37  23  56 SE12G17   29.91F
RUSH CITY      MOCLDY    34  20  57 S12       29.94F WCI  25
MOOSE LAKE     MOCLDY    34  19  55 S10G21    29.88F WCI  26
CLOQUET        CLOUDY    34  18  51 S12G22    29.88F WCI  25
MCGREGOR       PTCLDY    34  23  64 S13G21    29.86F WCI  25
$$
MNZ071>073-080-081-089-090-097-098-290500-
   Southwest Minnesota

CITY           SKY/WX    TMP DP  RH WIND       PRES   REMARKS
MONTEVIDEO     PTCLDY    41  30  65 S16G24    29.80F
GRANITE FALLS  CLEAR     38  29  70 SE17      29.82F
CANBY          CLEAR     45  28  52 S18G25    29.76F
MARSHALL       CLEAR     43  27  52 S26G35    29.80F
REDWOOD FALLS  CLEAR     39  27  62 S20       29.84F
OLIVIA         CLEAR     36  28  75 S16G22    29.83F
PIPESTONE      CLEAR     39  28  65 S23       29.79F
WINDOM         CLEAR     39  28  65 S17G28    29.86F
WORTHINGTON    CLEAR     37  27  65 S23G29    29.86F
JACKSON        CLEAR     39  27  60 S23G29    29.90F
TRACY          CLEAR     41  29  62 S20G32    29.80F
SLAYTON        CLEAR     39  26  58 S25       29.82F
$$
MNZ065>067-074>077-082>085-091>093-290500-
   South Central Minnesota

CITY           SKY/WX    TMP DP  RH WIND       PRES   REMARKS
MANKATO        PTCLDY    37  21  52 S16G24    29.95F
NEW ULM        CLEAR     37  23  56 S21       29.90F
ST JAMES       CLEAR     37  27  65 SE16      29.92F
FAIRMONT       CLEAR     36  21  55 S18       29.92F
GLENCOE        PTCLDY    38  27  64 SE13G24   29.91F
FARIBAULT      CLOUDY    37  21  52 S17G28    29.98F
OWATONNA       CLOUDY    36  21  55 S17G24    29.99F
WASECA         CLOUDY    37  23  56 S15G23    30.00F
ALBERT LEA     MOCLDY    36  21  55 S15G23    30.00F
$$
MNZ078>079-086>088-094>096-290500-
   Southeast Minnesota

CITY           SKY/WX    TMP DP  RH WIND       PRES   REMARKS
ROCHESTER      PTCLDY    33  19  56 S20G29    30.03F WCI  21
RED WING       PTCLDY    36  18  48 S8G16     30.03F
STANTON        CLOUDY    36  23  58 S18G26    29.98F
DODGE CENTER   MOCLDY    34  23  64 S20G25    30.01F WCI  22
WINONA         CLEAR     36  19  51 SE8       30.10F
AUSTIN         PTCLDY    34  21  60 S12G18    30.03F WCI  25
PRESTON        PTCLDY    31  19  58 S16G23    30.07F WCI  20
$$
ABBREVIATIONS USED IN REMARKS
   TC - TEMPERATURES IN CELSIUS
  WCI - WIND CHILL INDEX
   HX - HEAT INDEX
  VSB - VISIBILITY
$$



USA.gov is the U.S. government's official web portal to all federal, state and local government web resources and services.